Simultaneous Nadir Overpasses (SNOs) Predictions

Prediction of SNOs between METOP-C and LANDSAT-8 Satellite Orbit:

Table of predicted SNOs for the next 14.0 days since TLE Epoch: 11/28/2020
Index Date (METOP-C) Time (METOP-C) Lat,Lon (METOP-C) SZA (METOP-C ) Date (LANDSAT-8) Time (LANDSAT-8) Lat,Lon (LANDSAT-8) SZA (LANDSAT-8 ) Distance(km) Time Diff (sec)
1 11/28/2020 12:52:42 81.07, 25.88 104.66 11/28/2020 12:53:10 81.07, 25.87 104.67 0.06 28
2 11/28/2020 13:43:21 -81.09,-166.27 75.27 11/28/2020 13:42:36 -81.09,-166.20 75.28 1.32 45
3 12/01/2020 08:27:05 81.09, 92.63 105.13 12/01/2020 08:27:25 81.09, 92.53 105.13 1.75 20
4 12/01/2020 09:17:44 -81.10, -99.54 74.81 12/01/2020 09:16:51 -81.11, -99.52 74.82 0.69 53
5 12/04/2020 04:01:29 81.07, 158.60 105.44 12/04/2020 04:01:40 81.07, 158.77 105.47 2.93 11
6 12/04/2020 04:52:07 -81.10, -33.21 74.45 12/04/2020 04:51:06 -81.10, -33.25 74.48 0.77 61
7 12/06/2020 23:35:52 81.08,-134.71 105.79 12/06/2020 23:35:55 81.08,-134.68 105.80 0.54 3
8 12/07/2020 00:26:30 -81.11, 33.47 74.10 12/07/2020 00:25:21 -81.11, 33.33 74.15 2.47 69
9 12/09/2020 18:19:36 -81.06, 123.75 74.05 12/09/2020 18:20:45 -81.06, 123.83 74.00 1.58 69
